Temp_Advection
nan nan nan nan nan nan nan nan nan nan nan nan nan nan nan nan nan nan nan nan nan nan nan nan nan nan nan nan nan nan nan nan nan nan nan nan nan nan nan nan nan nan nan nan nan nan nan nan nan nan nan nan nan nan nan nan nan nan nan nan nan nan nan nan nan nan nan nan nan
nan 1 0 0 0 -0 -0 -0 0 0 0 1 1 1 1 0 1 1 1 1 1 1 1 1 1 3 3 3 2 2 1 1 1 2 3 4 4 2 1 1 1 0 1 2 3 3 2 1 0 -0 0 1 1 1 1 1 1 1 1 1 0 0 0 1 1 0 0 0 nan
nan 1 1 1 0 -0 -0 -1 -1 -1 -0 1 1 1 1 0 0 0 1 2 2 1 1 1 1 2 3 2 2 1 1 0 1 2 2 2 1 1 1 1 1 0 1 2 3 3 2 0 0 0 1 1 1 1 1 1 1 1 1 0 0 0 0 1 1 0 0 0 nan
nan 1 1 0 -0 -0 -1 -1 -1 -0 0 1 2 2 0 0 1 1 2 3 2 1 0 1 2 2 2 2 2 1 1 1 2 2 1 1 1 1 0 0 1 0 1 3 4 2 1 -0 0 1 1 1 1 1 1 1 1 1 1 0 0 0 0 1 1 0 0 0 nan
nan 1 1 0 0 -0 -0 -0 -0 0 1 2 2 1 0 0 1 1 2 2 1 0 0 1 1 2 2 2 2 1 1 1 1 0 0 0 0 1 1 1 1 1 2 4 3 2 0 0 1 1 1 1 1 1 1 1 1 1 0 0 -0 0 1 1 1 0 0 0 nan
nan 1 1 0 0 0 0 0 1 1 2 2 2 1 0 -0 0 1 1 1 1 1 0 0 1 2 2 2 2 1 1 1 0 -0 0 0 0 0 1 1 1 2 4 5 3 1 0 0 0 1 1 1 1 1 1 1 1 1 0 -0 0 0 1 1 0 0 0 0 nan
nan 0 0 0 0 1 1 1 2 2 2 1 0 -1 -1 -0 1 1 1 1 2 1 0 -0 1 2 3 2 1 1 0 0 -0 0 0 1 1 1 2 2 2 3 5 5 2 1 0 0 0 1 1 1 1 1 1 1 1 0 -0 -0 0 1 1 1 1 0 0 0 nan
nan 0 0 0 0 1 1 2 3 2 2 -0 -1 -1 -1 0 1 2 2 2 2 0 -0 0 3 4 3 1 0 0 0 0 0 0 1 1 1 2 3 3 3 5 5 3 1 0 0 0 1 1 1 1 1 1 1 1 1 0 0 0 1 1 1 1 0 0 0 0 nan
nan 0 0 0 0 1 2 2 2 2 1 -1 -1 -0 0 1 2 3 3 2 1 0 1 3 5 3 1 0 0 0 0 0 0 1 1 2 2 4 4 3 4 4 3 1 0 0 0 0 1 1 1 1 1 1 1 1 1 0 0 0 1 1 1 1 0 0 -0 -0 nan
nan 0 -0 0 0 1 2 2 2 1 1 0 0 1 2 2 3 2 2 1 1 2 5 5 3 1 0 -0 -0 -0 0 0 1 1 2 3 4 5 4 3 3 3 2 1 0 0 0 0 1 1 2 1 1 1 1 1 1 0 0 1 1 1 1 0 0 -0 -0 -0 nan
nan -0 -0 -0 0 1 2 2 2 2 1 1 1 1 2 2 2 1 1 1 4 6 4 2 1 0 -0 -0 -0 -0 0 0 1 1 3 4 5 5 3 2 2 2 1 0 0 0 -0 0 1 1 1 1 1 2 2 2 1 1 1 1 1 1 1 0 0 -0 -0 -0 nan
nan -0 -0 -0 -0 1 2 3 3 2 1 1 0 1 1 1 1 1 2 5 6 4 1 0 -0 -0 -0 -0 -0 -0 0 1 1 2 4 5 5 3 1 1 1 1 1 1 0 -0 -1 0 1 1 1 1 2 2 2 2 1 1 1 1 1 1 0 0 -0 -0 -0 -0 nan
nan -0 -0 -0 -0 1 2 3 3 2 1 0 0 0 0 1 2 4 5 5 3 1 0 0 0 0 0 -0 -0 -0 0 1 2 3 5 5 4 2 0 1 1 1 1 1 -0 -1 -0 1 1 1 1 2 3 3 2 1 1 1 1 1 1 0 0 -0 -0 -0 -0 -0 nan
nan 0 0 0 0 1 2 3 3 1 -0 -0 0 0 1 3 4 4 4 2 1 0 0 0 0 0 0 -0 -0 -0 0 2 3 4 4 4 3 1 0 1 1 2 2 1 -1 -1 0 1 1 2 2 3 3 2 1 0 0 0 1 0 0 0 0 -0 -0 -0 -0 0 nan
nan -0 0 0 1 2 2 2 1 -0 -0 0 0 1 3 4 3 2 1 1 0 0 0 0 0 0 0 0 0 1 1 2 3 3 3 3 2 1 0 1 2 2 2 0 -1 -0 1 1 1 2 2 2 1 0 -1 -1 -0 0 0 0 0 0 0 -0 -0 -0 -0 0 nan
nan -0 -0 0 1 2 2 1 0 -0 -0 0 1 2 3 2 1 1 0 0 0 0 0 0 0 1 1 1 1 1 2 2 2 2 2 3 2 1 0 1 2 3 1 -0 -0 0 1 1 1 1 1 1 -0 -1 -1 -1 -0 0 0 0 0 0 0 -0 -0 -0 0 1 nan
nan -0 -0 0 1 1 2 1 0 0 0 0 1 2 2 1 1 0 0 1 1 1 0 1 1 1 1 1 1 1 2 1 1 2 3 3 3 1 1 2 3 2 1 -0 -0 0 0 1 1 1 1 0 -0 -1 -1 -0 -0 0 0 0 0 -0 -0 -0 -0 0 1 1 nan
nan -0 -0 0 1 1 2 1 0 -0 0 0 1 1 1 1 1 0 0 1 1 1 1 1 1 1 1 1 1 1 1 1 1 3 4 4 3 1 1 2 2 2 0 -0 -0 -0 0 0 1 1 1 0 0 -0 -0 -0 -0 -0 -0 -0 -0 -0 -0 -0 0 1 1 1 nan
nan -0 -0 0 1 1 0 0 0 0 0 1 1 1 2 1 1 0 1 1 1 1 1 0 1 1 1 1 0 1 1 2 3 4 4 3 2 1 1 2 1 1 -0 -1 -0 0 1 1 1 1 1 0 0 0 0 0 0 0 -0 -0 -0 0 0 0 1 1 1 1 nan
nan -1 -0 0 0 0 1 1 1 1 1 1 1 2 2 1 1 1 1 1 1 1 1 0 0 1 1 1 1 2 2 3 4 4 4 2 1 1 1 1 1 0 -0 -0 0 1 1 2 2 1 1 1 0 0 0 0 0 0 -0 -0 0 0 0 1 1 1 1 0 nan
nan -1 -0 0 1 1 1 1 1 1 1 2 2 2 2 1 1 1 1 1 1 1 1 0 0 1 1 2 3 3 3 3 4 4 3 2 1 1 1 0 0 0 0 1 1 2 2 2 1 1 1 1 1 0 0 0 -0 -0 -0 0 0 0 1 1 1 1 0 -1 nan
nan -0 1 1 1 1 1 1 1 1 2 2 2 2 1 1 1 1 1 1 2 1 1 0 1 2 3 3 3 3 3 3 3 2 2 1 1 1 0 0 0 1 1 1 2 2 2 1 1 1 1 1 0 0 -0 -0 -0 -0 -0 0 1 1 1 1 0 -0 -1 -1 nan
nan 1 1 1 1 1 1 1 2 2 2 2 2 1 1 1 1 1 2 2 2 2 1 1 3 3 3 3 3 3 3 2 2 1 1 1 1 1 0 1 1 1 2 2 1 1 1 1 1 0 0 -0 -0 -0 -0 -0 -0 -0 0 1 1 1 1 0 -0 -1 -1 -0 nan
nan 1 1 2 1 2 2 2 2 2 2 2 1 1 0 1 1 2 3 3 3 2 2 3 3 3 3 3 3 3 2 1 1 1 1 1 1 1 1 1 2 2 1 1 1 1 1 0 -0 -0 -1 -1 -0 -0 -0 -0 0 0 1 1 1 0 0 -0 -1 -0 -0 -0 nan
nan 2 2 2 2 2 2 2 2 2 1 1 1 0 1 1 2 3 3 3 2 2 2 2 2 2 3 3 3 2 1 1 1 1 1 1 1 1 1 1 1 1 1 1 1 0 -0 -0 -1 -1 -1 -0 -0 0 0 0 1 1 1 1 0 -0 -0 -0 -0 -0 -0 -0 nan
nan 2 2 2 2 2 2 2 2 1 1 1 1 1 2 2 3 3 2 2 1 1 2 2 3 3 3 2 1 0 0 1 1 2 2 1 1 1 1 1 0 0 0 0 0 -0 -0 -1 -1 -0 -0 0 0 0 0 1 1 1 1 0 -0 -0 -0 0 0 0 0 -0 nan
nan 2 2 2 2 2 2 2 2 2 2 2 2 3 3 3 3 2 1 1 1 2 3 3 3 3 2 1 0 0 1 1 2 2 2 2 1 0 0 0 0 0 0 0 -0 -0 -0 -0 -0 -0 0 0 0 1 1 1 1 1 0 -0 -0 0 0 0 0 0 -0 -1 nan
nan 1 1 2 2 2 2 2 2 2 3 3 3 3 3 3 2 1 1 1 2 3 4 3 2 1 0 0 1 1 1 2 2 2 2 1 1 0 0 0 0 0 0 -0 -0 -0 -0 -0 -0 0 0 0 1 1 1 1 0 0 -0 -0 0 0 1 0 0 -0 -1 -1 nan
nan 1 1 2 2 2 3 3 3 3 4 4 3 3 2 2 1 2 2 3 4 3 2 1 0 0 0 1 1 1 2 2 2 1 1 0 0 0 0 0 0 0 -0 -0 -0 -0 -0 -0 0 0 1 1 1 1 1 0 -0 -0 0 0 0 0 0 -0 -1 -1 -1 -0 nan
nan 1 2 2 2 3 3 3 3 3 3 3 2 2 1 2 2 3 3 3 3 1 0 0 0 0 1 1 1 2 2 1 1 1 0 0 0 0 0 0 0 -0 -0 -0 -0 -0 -0 0 0 1 1 1 1 1 0 -0 0 0 0 0 0 0 -0 -1 -1 -1 -0 0 nan
nan 2 2 2 2 2 3 3 3 3 2 2 2 2 2 2 3 2 2 1 1 0 0 0 1 1 1 1 1 1 1 1 0 0 0 0 0 0 0 -0 -0 -0 -0 -0 -0 -0 0 1 1 1 1 1 0 -0 -0 0 0 0 0 0 -0 -0 -1 -1 -0 -0 0 0 nan
nan 2 2 2 2 2 2 2 2 2 2 2 2 2 2 1 1 1 1 0 0 0 1 1 1 1 1 1 1 1 0 0 0 0 0 0 0 -0 -0 -0 -0 -0 -0 -0 0 0 1 1 1 1 1 0 -0 -0 0 0 0 0 0 -0 -1 -1 -0 -0 0 0 0 0 nan
nan 2 2 2 2 2 1 1 1 1 1 1 1 1 0 0 0 0 0 1 1 1 1 1 1 1 0 0 0 -0 -0 -0 -0 -0 -0 -0 -0 -0 -0 -0 -0 0 0 1 1 1 1 1 1 0 0 0 0 0 0 0 0 -0 -0 -0 -0 -0 -0 0 0 0 0 0 nan
nan 1 1 1 0 -0 -0 -0 -0 -0 -0 -0 -0 0 0 0 0 0 0 1 1 1 1 0 0 0 -0 -0 -1 -1 -1 -1 -0 -0 -0 -0 -0 -0 -0 0 0 1 1 1 1 1 1 0 0 0 0 0 0 0 0 -0 -0 -0 -0 -0 0 0 0 0 0 0 0 0 nan
nan 0 -0 -0 -1 -1 -1 -1 -1 -1 -0 -0 0 0 1 1 1 0 0 0 0 0 0 0 -0 -0 -0 -0 -0 -0 -0 -0 -0 -0 -0 -0 0 0 1 1 1 1 1 1 0 0 -0 -0 0 0 0 0 0 -0 -0 -0 -0 0 0 0 0 0 0 0 0 0 0 0 nan
nan -0 -0 -0 -0 -0 -0 -0 -0 0 0 1 1 1 1 1 1 1 0 0 -0 -0 -0 -0 -0 -0 -0 -0 0 0 0 0 0 0 0 0 1 1 1 1 1 1 0 0 0 -0 -0 0 0 0 0 -0 -0 -0 -0 0 0 0 0 0 0 0 0 0 0 0 0 0 nan
nan 0 0 0 0 1 1 1 1 1 1 1 1 1 1 1 0 1 0 0 -0 -0 -0 -0 0 0 0 0 0 0 0 0 0 0 1 1 1 1 0 0 0 0 0 0 -0 -0 -0 0 0 0 0 -0 -0 0 0 0 0 0 0 0 0 0 0 0 0 0 0 -0 nan
nan 0 0 1 1 1 1 1 1 1 1 1 1 1 0 0 0 0 0 0 0 0 -0 0 0 0 0 0 0 0 0 0 1 1 0 0 0 0 0 0 0 0 0 0 0 -0 -0 0 0 0 0 -0 -0 0 0 0 0 0 0 0 0 0 0 0 0 0 0 -0 nan
nan 0 1 1 1 1 1 1 1 1 0 0 0 0 0 0 0 0 0 1 1 0 0 0 0 0 0 0 0 0 0 0 0 0 0 0 0 0 0 0 0 0 0 0 0 -0 -0 -0 0 0 0 0 0 0 0 0 0 0 0 0 0 0 0 0 0 0 0 0 nan
nan 0 0 0 0 0 0 0 1 1 0 0 -0 -0 0 0 0 -0 0 0 1 1 0 0 0 0 0 0 0 0 0 -0 0 0 0 0 0 0 0 0 0 0 0 0 0 -0 -0 -0 0 0 0 0 0 0 0 0 0 0 0 0 0 0 0 0 0 0 0 0 nan
nan nan nan nan nan nan nan nan nan nan nan nan nan nan nan nan nan nan nan nan nan nan nan nan nan nan nan nan nan nan nan nan nan nan nan nan nan nan nan nan nan nan nan nan nan nan nan nan nan nan nan nan nan nan nan nan nan nan nan nan nan nan nan nan nan nan nan nan nan
Wind_Speed
34 36 38 39 40 40 40 40 40 40 40 41 43 44 45 45 45 45 45 45 45 45 46 47 47 48 48 49 49 48 48 49 50 50 50 50 47 44 41 39 37 35 32 31 31 31 31 30 30 29 28 27 26 26 25 24 22 19 17 15 13 12 12 10 9 8 7 6 6
31 35 37 39 39 40 40 39 39 40 40 40 41 43 44 45 46 46 46 45 45 45 46 46 47 47 48 48 48 47 47 47 48 48 47 46 44 41 39 36 35 33 31 30 30 31 31 31 31 31 29 29 28 27 26 25 22 19 16 14 13 12 11 10 9 8 7 7 7
26 31 35 37 39 40 40 40 40 40 40 40 41 42 44 45 45 46 46 46 45 45 45 46 47 47 47 46 46 45 45 46 46 46 44 42 41 39 36 34 31 30 30 30 30 31 32 33 33 32 31 30 29 28 26 24 21 18 16 15 14 13 12 11 10 9 8 7 7
24 27 31 35 37 39 40 40 40 40 40 41 42 43 44 45 45 46 45 45 44 44 45 46 46 46 46 45 44 44 44 44 43 42 41 40 38 36 34 32 30 30 30 30 31 32 34 34 34 33 32 31 30 29 26 23 20 18 17 16 15 14 12 11 10 9 8 8 7
25 26 28 31 34 36 38 39 40 41 41 42 43 44 45 45 45 45 45 45 45 45 45 45 46 46 46 45 43 42 41 40 39 39 39 39 37 36 34 32 31 31 32 31 32 34 35 36 35 34 34 33 31 29 26 23 20 19 17 17 16 15 13 11 10 9 8 8 8
27 27 27 28 30 33 35 38 40 41 42 43 44 45 45 45 46 46 46 46 46 46 46 46 46 46 45 43 41 39 38 37 36 36 37 37 36 35 34 32 32 32 31 32 34 37 38 38 37 36 35 33 31 29 26 23 21 19 18 17 16 15 13 11 10 9 8 8 8
29 28 27 27 28 30 32 35 39 41 43 44 45 45 46 46 46 46 46 47 47 47 46 47 47 45 42 38 35 35 35 35 34 35 35 35 35 34 33 32 32 31 32 34 37 39 40 40 39 37 36 34 32 29 26 23 21 19 18 18 16 14 12 11 10 9 9 8 8
29 29 27 27 26 28 31 35 38 42 44 45 45 46 46 46 46 47 47 47 47 47 48 47 46 41 36 32 31 31 31 32 32 33 34 34 35 35 34 32 32 32 35 37 40 41 41 40 39 37 35 33 31 29 26 23 21 19 19 17 16 14 12 10 10 9 9 9 9
29 28 27 26 26 28 31 35 39 42 44 45 46 46 46 46 47 47 47 48 48 48 48 46 41 35 31 29 29 30 30 30 30 31 33 34 35 35 34 32 33 35 37 40 42 42 41 40 38 36 34 32 30 27 24 22 20 19 18 17 15 13 11 10 10 10 10 9 9
28 26 25 25 26 28 31 35 38 41 43 45 46 46 47 47 47 48 48 48 47 47 44 40 34 30 28 29 29 29 29 30 32 33 33 34 35 34 33 34 35 38 40 41 42 42 40 38 36 35 33 31 28 25 23 21 20 19 18 16 14 12 11 11 11 10 10 10 10
26 25 24 25 26 28 31 35 38 41 43 45 46 47 47 47 47 47 47 47 45 42 37 33 30 28 28 29 29 29 28 29 32 33 34 34 35 34 34 35 37 40 41 42 41 40 39 37 35 34 32 29 26 23 22 20 20 19 17 15 12 11 10 11 11 11 10 10 10
24 24 24 25 27 29 32 35 38 40 42 44 46 47 47 47 47 47 46 44 40 36 32 29 28 28 29 29 29 28 28 30 31 32 33 34 35 35 35 37 39 40 41 41 40 39 37 36 35 33 31 27 24 22 20 19 19 18 16 13 11 11 11 11 11 11 10 10 10
23 23 24 25 27 30 32 35 38 40 42 44 45 46 47 47 47 45 42 39 36 33 31 30 30 30 30 30 29 29 29 30 30 31 33 34 35 35 36 38 39 41 41 40 39 38 36 35 34 32 29 26 23 20 19 18 17 16 14 12 11 11 11 12 11 11 11 11 11
23 23 24 26 28 30 33 36 38 40 41 43 44 46 46 45 43 40 37 35 33 32 31 31 30 30 30 30 30 29 29 29 29 30 32 34 35 36 37 38 40 40 40 39 38 36 35 34 32 30 27 24 21 19 18 18 17 16 14 13 12 12 12 12 12 11 11 12 12
23 23 24 26 28 31 33 36 38 39 41 42 43 45 45 42 39 36 34 33 32 32 31 31 30 30 30 29 29 28 28 27 28 30 32 34 36 36 37 38 40 40 39 38 37 35 34 33 31 29 26 23 21 20 19 19 17 15 14 12 12 11 11 11 11 11 11 12 12
23 23 24 26 29 31 34 35 37 38 40 41 43 44 43 40 37 35 33 32 31 31 31 30 30 29 29 29 28 28 27 27 28 30 33 35 36 37 37 38 39 39 38 37 36 35 34 32 30 28 25 23 21 20 20 18 16 15 13 12 11 11 11 11 11 11 11 12 12
23 24 25 26 29 31 33 35 36 38 39 41 42 42 42 40 37 34 33 32 32 31 30 29 29 29 29 29 28 28 27 28 29 32 34 35 36 36 36 37 38 38 38 37 37 36 35 33 30 27 24 21 21 20 19 17 15 14 12 12 11 11 11 11 12 12 12 12 13
23 24 26 27 29 31 32 34 36 38 39 40 41 42 41 39 36 34 33 33 32 31 30 29 29 29 29 29 28 28 28 29 31 33 34 34 34 34 35 37 37 37 37 37 37 36 34 31 28 25 22 21 20 19 18 16 14 13 12 11 10 11 12 12 13 13 12 12 14
23 24 26 28 29 31 33 34 36 38 39 40 40 40 40 37 35 33 32 33 33 32 30 29 28 28 28 28 28 28 28 29 31 33 33 33 32 33 34 36 37 37 37 37 36 35 32 29 25 23 21 21 19 17 16 14 12 11 10 10 11 12 14 14 14 13 12 13 15
24 25 26 27 29 32 34 35 36 37 38 39 39 39 38 36 34 32 32 33 33 32 31 29 28 27 28 28 29 29 29 30 31 32 32 31 31 32 34 36 37 38 38 37 35 32 29 26 23 21 20 19 17 15 13 12 11 10 11 12 14 15 15 14 13 13 13 14 16
26 26 26 27 30 32 34 35 36 37 37 38 38 37 36 35 33 33 33 34 34 33 31 28 27 28 29 30 30 30 30 30 31 30 30 30 31 32 34 36 38 38 37 35 32 29 25 22 20 19 18 16 15 13 12 11 11 12 13 14 15 14 13 13 12 13 14 17 18
27 27 28 28 30 32 34 35 36 37 37 36 36 35 35 34 33 33 33 34 33 32 29 28 28 29 30 30 30 30 30 30 29 29 29 29 30 32 35 37 38 37 35 32 28 24 21 19 18 17 16 15 14 13 12 12 12 13 14 14 13 12 11 12 13 15 17 18 19
28 29 29 30 31 32 33 35 36 36 36 35 35 34 34 34 34 34 34 33 32 30 28 28 28 29 29 29 29 29 29 29 28 27 28 29 31 33 35 36 36 34 31 27 23 20 18 17 17 16 16 15 14 13 12 12 12 13 12 11 11 11 11 13 15 17 18 19 19
28 29 30 31 32 32 33 34 35 35 35 35 34 34 34 34 34 34 33 32 31 29 28 29 29 29 28 28 28 28 27 26 26 26 27 29 32 34 35 34 32 29 25 22 20 18 18 17 17 17 16 15 13 12 12 12 12 11 10 10 10 11 13 15 17 18 18 18 18
29 30 31 31 32 32 33 34 34 35 35 35 35 34 34 34 34 33 32 31 30 29 29 29 29 28 28 27 26 25 24 23 23 25 28 31 33 33 32 30 27 24 21 20 18 18 18 18 17 16 14 13 12 11 11 11 11 10 9 9 10 13 15 17 17 18 18 18 19
28 29 30 31 31 32 33 33 34 35 35 35 35 35 34 34 34 33 32 31 30 30 30 29 29 28 27 25 23 21 20 21 22 25 29 31 33 31 29 25 22 20 19 18 17 17 17 17 15 14 12 11 11 11 11 11 10 9 9 10 12 14 16 17 17 18 18 19 19
27 27 28 30 31 32 33 34 34 35 35 36 35 35 35 34 34 32 31 30 30 30 29 29 27 25 23 21 19 18 19 21 23 26 29 30 30 27 24 21 19 18 17 17 17 17 16 15 13 12 12 12 11 11 10 9 8 9 10 13 14 16 16 16 17 17 19 20 20
26 27 28 29 30 31 32 33 34 35 35 35 35 35 34 33 32 31 30 29 29 29 28 26 23 20 18 17 17 17 19 22 24 26 27 27 25 22 20 19 18 17 17 17 16 16 14 13 12 12 11 11 10 9 9 8 10 11 13 15 15 15 15 15 16 18 19 20 21
26 27 27 28 30 31 32 33 33 34 34 34 34 33 32 31 30 29 29 28 27 26 24 21 19 17 15 15 16 17 20 22 24 25 24 22 21 19 18 18 17 17 17 16 15 14 13 12 11 11 11 10 9 9 9 11 12 14 14 15 14 14 15 15 17 19 20 20 20
25 26 27 28 29 30 31 32 32 32 33 32 32 31 30 29 28 28 27 25 24 21 19 17 15 15 14 14 16 18 20 22 23 22 21 20 19 19 18 18 18 17 16 15 13 12 12 11 11 10 9 9 9 10 11 13 14 14 14 13 14 14 15 17 19 20 20 20 19
25 26 27 28 29 29 30 30 30 30 30 30 29 29 28 27 26 25 23 21 19 17 15 14 14 14 14 15 17 19 21 21 21 20 20 19 19 19 19 18 17 16 14 13 12 11 11 10 10 9 8 9 10 12 13 13 13 13 13 13 14 16 17 18 19 19 19 18 18
25 25 26 27 28 28 28 28 28 28 28 27 27 26 25 24 22 21 19 17 16 15 14 13 14 15 16 17 19 20 21 21 21 20 20 19 19 19 18 16 15 13 12 11 11 10 10 9 9 8 9 10 11 12 12 12 12 12 13 14 16 17 17 18 18 18 18 18 18
25 25 26 26 26 26 26 26 25 25 25 24 23 22 21 20 19 17 16 15 14 14 14 15 16 17 19 20 21 21 21 21 20 20 19 19 18 17 15 14 12 11 10 10 9 9 9 9 9 9 10 10 11 11 11 11 11 12 14 15 16 16 17 17 17 17 17 17 18
24 24 24 24 24 24 23 23 22 22 21 20 19 19 18 17 17 16 16 16 15 16 17 18 19 20 21 21 21 21 21 20 20 19 18 17 15 14 13 11 10 9 9 8 8 8 9 9 9 9 9 10 10 10 10 11 12 13 14 15 15 16 16 16 16 17 17 17 17
21 21 21 20 20 19 19 19 19 18 18 18 18 17 17 17 17 17 18 18 19 20 21 21 21 22 21 21 20 20 19 18 18 16 15 14 13 12 10 10 8 8 7 7 7 8 9 9 9 8 8 9 9 10 11 12 13 13 14 14 15 15 15 16 16 17 17 17 17
18 17 17 17 17 17 17 17 17 17 17 17 17 18 18 18 19 19 21 22 23 23 24 23 23 22 21 21 19 18 17 16 15 14 13 12 10 9 8 7 7 6 6 7 7 8 9 8 8 7 8 8 9 10 11 12 12 13 13 14 14 15 15 16 16 16 17 17 17
16 15 15 16 16 16 17 17 17 17 17 17 18 19 20 21 22 23 23 24 24 24 24 23 22 21 20 18 17 16 14 13 12 11 10 9 8 7 6 5 5 6 6 7 7 8 8 7 7 7 8 9 10 10 11 11 12 12 13 13 14 14 15 15 16 16 16 17 17
15 15 15 15 16 16 16 16 17 17 18 19 20 22 23 24 25 25 25 24 24 23 22 21 20 18 17 16 15 14 13 11 10 9 8 6 5 5 4 5 5 6 6 7 7 7 7 7 7 7 8 9 10 10 11 11 11 12 12 13 14 14 15 15 15 15 16 16 16
14 14 14 14 15 15 16 16 17 18 20 22 23 24 24 25 25 25 24 22 21 20 20 19 18 17 15 14 13 12 11 10 8 7 6 5 4 4 5 5 6 6 6 6 6 7 7 7 7 8 8 9 10 10 10 11 11 12 12 13 13 14 14 14 14 14 14 15 15
12 12 12 13 14 15 16 18 19 21 22 23 24 24 24 24 24 23 22 20 19 18 17 17 16 15 14 13 11 10 9 8 7 6 5 5 5 5 6 6 6 5 5 5 6 7 7 8 8 8 9 9 9 10 10 11 11 12 12 12 13 13 13 13 13 13 13 13 13
9 10 11 13 15 17 19 21 22 23 24 24 24 23 23 22 22 21 20 18 17 16 16 15 14 13 11 10 9 8 7 7 6 6 6 6 6 6 5 5 5 5 5 5 6 7 8 9 9 9 9 9 9 10 10 11 11 11 12 12 12 13 13 13 13 12 12 12 13
Wind_Direction
251 249 248 247 247 247 246 247 247 247 246 245 245 245 246 246 246 245 244 244 244 245 246 248 249 250 249 247 246 244 242 240 238 238 239 239 239 240 241 243 246 248 248 242 229 220 214 210 209 211 214 216 217 219 220 221 221 220 220 220 221 224 228 231 234 237 240 245 251
254 251 250 249 248 247 247 246 246 246 246 246 245 245 246 246 246 246 246 245 245 245 246 246 246 246 245 245 245 243 241 239 238 238 239 240 241 242 242 243 247 249 248 240 225 214 208 207 208 211 213 215 216 218 218 218 217 216 217 218 221 224 228 232 235 239 243 248 256
261 255 252 250 249 247 246 246 246 246 246 246 245 245 245 246 247 247 247 248 247 246 245 245 245 244 243 243 243 243 242 242 241 241 242 243 244 243 243 245 246 248 246 235 220 209 206 206 209 211 213 215 216 216 215 213 213 213 214 217 221 225 229 233 237 241 245 252 260
271 262 256 252 250 249 248 248 247 247 247 246 244 243 244 245 246 247 247 247 246 245 245 245 244 243 242 241 241 242 242 243 243 243 244 245 245 245 246 248 248 247 241 229 214 206 205 207 209 211 214 215 215 214 211 209 208 210 213 218 223 227 230 234 237 241 246 254 262
280 272 265 259 255 253 252 251 250 249 247 245 242 241 242 243 245 245 245 244 244 244 245 245 244 243 242 241 242 243 244 245 244 244 245 247 247 249 250 251 248 243 235 222 209 204 205 208 210 212 214 215 213 210 207 206 207 209 214 220 225 228 231 233 234 239 247 256 266
284 280 274 268 262 258 256 254 252 249 247 243 240 239 240 242 244 244 243 242 243 244 245 245 244 244 243 243 244 246 248 248 247 247 249 249 250 251 251 249 242 233 223 212 204 203 206 209 212 214 215 214 211 208 207 207 207 210 215 221 225 228 229 231 234 240 249 260 269
284 282 279 274 268 262 258 254 251 247 244 241 240 240 241 243 244 245 244 243 243 244 245 246 245 244 243 245 248 250 250 250 249 250 251 251 252 252 249 243 232 220 210 203 201 203 207 211 214 215 215 213 210 209 209 209 209 211 215 220 224 226 227 230 235 243 252 263 271
282 282 281 278 272 265 258 253 248 244 241 240 240 241 243 244 245 246 245 243 242 243 244 245 244 244 245 249 251 250 249 248 249 250 251 252 251 250 245 234 220 208 201 200 201 205 208 212 215 216 215 212 210 210 211 211 211 212 215 219 221 223 226 231 238 246 255 264 273
280 281 281 278 271 264 256 251 246 242 240 240 242 243 244 244 245 245 244 242 241 242 243 242 241 244 248 252 251 250 249 249 250 252 252 251 248 244 237 225 211 202 199 201 204 207 210 213 216 216 214 211 210 211 211 211 211 212 215 218 219 221 226 233 240 248 256 265 275
279 281 280 276 268 260 254 248 245 242 241 241 242 243 243 243 243 242 242 241 241 241 239 238 239 245 250 251 250 248 249 251 252 253 252 249 244 238 229 217 206 201 200 203 206 209 213 215 216 214 211 210 209 209 210 210 210 212 214 217 218 222 228 236 243 250 259 267 277
279 281 280 274 266 259 252 247 243 241 240 240 240 241 241 241 240 240 240 240 239 239 240 242 245 249 250 249 246 246 248 250 251 251 249 244 239 232 223 214 206 203 203 206 208 211 214 216 214 211 209 208 207 206 205 206 207 210 213 216 219 225 232 238 245 252 260 268 278
281 282 278 272 264 258 252 246 242 240 239 239 239 239 239 239 239 238 238 237 238 240 244 247 250 251 250 246 244 244 246 248 248 247 243 238 233 227 220 213 208 205 206 208 210 212 214 214 212 209 207 205 203 201 200 202 205 208 211 214 219 227 234 241 247 253 261 269 277
282 280 274 266 260 255 250 245 242 240 239 238 237 237 237 238 238 237 237 237 240 243 246 248 251 251 248 244 242 243 244 245 245 242 237 233 229 224 219 214 210 207 208 210 212 214 214 213 210 207 205 203 199 196 196 199 203 206 209 213 220 228 236 243 249 256 265 273 280
280 276 270 261 256 251 247 242 240 239 238 237 237 237 236 236 236 237 239 241 243 245 246 247 249 247 244 241 240 242 244 243 241 237 233 229 226 223 219 215 212 209 209 211 212 213 213 210 207 205 203 199 194 192 195 199 203 206 209 214 221 230 239 247 254 262 272 280 284
276 272 267 261 254 249 244 241 240 239 238 237 237 236 235 234 236 238 241 243 244 246 247 246 246 244 241 239 238 240 242 240 237 233 230 227 225 222 220 217 213 210 210 211 212 212 210 207 205 203 200 196 192 193 196 200 204 207 210 216 223 233 241 250 259 268 277 283 284
272 268 263 259 253 248 244 241 240 239 237 236 236 235 234 234 236 239 241 243 244 244 245 244 242 240 238 236 235 235 236 235 234 231 229 226 224 222 220 217 214 211 210 211 211 210 208 205 204 201 199 195 194 196 199 202 206 209 213 219 226 234 243 252 261 271 278 282 280
267 264 260 256 252 249 246 243 240 238 236 235 234 233 233 234 236 239 242 244 244 243 241 239 237 236 234 234 232 231 230 231 232 231 230 227 223 221 219 217 214 211 210 211 211 210 208 206 204 202 199 196 197 199 203 206 209 212 216 222 229 237 247 257 266 274 279 281 277
265 262 258 255 251 249 246 242 238 236 235 234 233 233 232 233 235 238 241 243 242 241 238 236 234 233 232 231 230 229 229 230 231 231 229 225 222 221 219 217 214 212 211 211 212 211 209 207 204 201 198 197 200 203 207 210 212 216 222 230 241 251 261 269 276 281 283 281 276
265 262 258 254 250 247 242 238 235 234 234 233 233 232 231 231 233 236 239 240 239 237 236 235 234 233 233 232 231 230 230 231 231 229 226 223 221 220 219 217 214 212 211 212 212 211 210 207 203 199 197 200 204 208 211 214 219 227 238 250 261 269 274 279 283 287 287 282 276
265 263 259 254 249 243 237 233 231 231 232 232 231 229 228 228 231 233 235 235 235 235 234 234 236 237 238 236 233 230 229 229 229 227 223 221 220 219 218 217 214 212 211 211 211 210 208 204 199 197 199 204 209 213 217 223 232 244 256 265 271 275 279 284 289 291 286 279 274
262 259 256 250 244 238 233 231 229 229 229 228 227 226 225 226 228 230 231 232 232 232 232 234 238 241 240 237 232 227 225 225 224 223 221 220 219 219 217 215 213 211 210 210 209 207 203 198 196 197 202 207 213 218 225 234 245 256 263 267 271 277 283 290 292 287 280 275 273
249 247 244 240 236 233 231 230 229 228 226 225 223 222 221 223 225 226 227 228 228 228 230 235 239 239 236 233 228 224 222 221 220 219 219 219 218 216 214 212 210 208 207 206 204 200 196 195 197 200 205 209 215 221 229 239 249 257 262 268 276 285 291 292 286 279 274 273 273
235 233 231 229 228 228 227 226 226 225 223 221 219 218 218 220 222 223 223 223 223 224 227 232 233 231 228 226 224 222 220 218 217 217 217 217 214 212 209 207 206 204 203 200 196 193 192 195 200 204 208 211 216 224 233 243 251 258 266 276 287 292 290 283 276 273 272 273 274
226 224 224 223 223 222 221 221 221 220 219 217 216 216 216 218 219 219 218 218 218 219 221 223 223 222 221 220 220 220 219 218 217 215 214 211 208 206 203 201 200 198 195 192 190 190 193 199 204 208 212 216 223 232 242 250 258 267 278 288 291 287 280 274 272 271 272 274 275
220 219 219 218 217 217 217 216 215 215 215 215 215 215 216 216 215 214 213 213 213 214 216 217 217 217 216 215 215 216 218 219 219 215 210 205 202 199 197 195 192 189 187 187 188 192 198 204 209 213 219 226 235 245 253 260 268 278 285 288 282 276 272 271 271 272 274 275 278
216 214 213 212 212 211 211 210 211 211 213 213 214 214 213 212 211 210 209 209 210 212 213 213 214 213 212 211 211 213 216 218 217 212 205 200 196 193 190 187 184 183 184 186 191 197 203 209 214 221 229 239 247 254 261 267 275 281 281 277 271 268 267 269 271 273 276 277 279
211 208 207 206 206 205 205 206 207 208 209 210 210 209 209 208 207 206 206 208 209 211 211 210 209 208 208 209 211 214 214 213 209 205 200 195 191 188 184 181 180 181 184 190 196 202 208 213 221 230 239 246 252 258 265 272 276 274 269 265 263 263 265 268 271 274 277 278 278
206 204 202 202 201 200 201 203 203 204 204 205 204 204 203 203 202 203 205 207 209 209 207 205 204 204 206 209 212 212 210 206 201 197 193 190 186 182 179 177 179 183 189 195 201 206 212 219 228 236 244 249 255 262 267 269 266 262 260 260 262 265 269 272 274 275 275 276 277
203 202 199 197 196 196 197 197 198 198 199 198 198 198 198 198 199 202 204 206 206 204 201 199 200 202 204 205 205 204 201 197 194 190 186 183 179 176 175 177 182 187 193 198 204 210 217 225 233 240 247 253 259 262 262 260 259 259 262 265 269 273 276 276 274 273 273 274 277
201 199 196 193 192 191 191 191 192 192 193 193 193 194 195 196 197 199 200 199 198 197 197 197 197 196 195 193 191 190 189 187 185 182 179 176 173 173 176 181 186 190 195 200 207 214 223 230 237 243 249 255 257 257 258 259 261 265 270 275 278 279 277 274 272 272 274 277 280
197 195 193 190 188 186 185 186 186 187 187 188 190 192 193 193 192 192 193 192 192 193 193 192 188 184 179 176 177 178 178 177 175 173 171 171 172 176 180 184 188 192 196 203 211 219 227 235 241 246 250 251 253 255 258 263 269 274 279 281 279 276 273 272 273 275 278 281 284
193 191 189 186 183 182 181 181 182 182 183 184 186 188 188 187 187 187 188 188 187 184 181 177 172 167 163 163 165 167 167 167 167 167 169 172 175 179 182 185 188 193 200 208 217 225 233 240 245 249 251 252 255 260 266 273 278 281 280 278 274 273 273 274 277 280 282 284 286
189 187 185 182 179 177 176 177 177 178 179 180 182 183 184 184 183 181 179 177 174 170 165 160 157 155 155 156 158 160 161 162 164 166 169 173 176 179 182 186 191 198 206 215 223 232 239 246 251 254 257 260 266 272 278 282 281 278 275 272 272 274 276 279 281 284 285 287 288
187 185 183 180 178 176 175 176 177 177 177 178 179 180 180 178 175 170 165 161 157 154 150 149 148 149 150 153 154 156 158 160 163 165 168 171 175 179 184 190 196 204 211 220 229 237 245 252 257 262 267 272 277 280 281 278 275 272 272 273 275 278 280 283 285 287 288 289 289
187 185 184 184 182 182 181 180 180 180 180 179 177 175 171 167 161 156 151 148 145 144 143 143 144 146 148 150 152 154 156 158 161 164 168 172 177 182 188 193 199 206 215 224 235 243 252 259 266 271 275 277 277 276 274 273 273 274 275 278 280 282 284 286 288 289 290 291 291
188 189 190 191 191 190 187 185 183 181 180 176 170 164 158 152 147 143 140 139 139 139 139 140 142 144 146 148 150 152 155 158 161 165 170 175 180 184 187 192 199 210 222 233 243 252 260 266 271 272 271 271 271 272 273 275 277 279 281 283 284 286 288 290 291 292 292 292 291
189 192 195 195 193 189 186 182 180 177 172 165 158 151 145 140 137 134 134 134 135 135 136 138 140 142 144 146 149 152 156 160 164 168 171 174 176 178 183 193 207 220 233 242 249 256 261 264 266 266 267 270 272 275 278 280 282 283 285 286 288 290 291 292 293 294 294 293 292
186 189 191 190 186 182 178 174 171 165 158 150 144 139 136 133 131 130 130 131 132 133 135 137 139 142 146 149 152 155 157 160 162 164 165 165 167 174 188 206 219 229 237 242 247 253 257 261 264 267 272 275 278 281 282 284 285 287 288 290 291 292 293 294 294 294 294 294 293
180 182 182 180 176 171 166 161 155 148 142 137 134 132 130 129 128 128 129 130 132 134 136 139 143 147 150 154 156 156 155 154 153 152 154 159 170 187 201 212 220 226 232 237 245 253 261 267 272 276 279 282 283 285 286 287 288 290 291 292 294 294 294 294 294 294 294 294 294
173 173 172 168 162 156 151 145 140 135 132 130 129 128 127 127 127 127 129 131 134 137 141 144 148 150 153 154 153 151 149 146 147 152 160 172 184 194 202 207 213 221 231 241 253 264 272 278 280 282 284 286 287 288 288 289 291 292 293 293 294 294 293 293 293 293 294 295 296
160 158 155 150 145 140 136 133 130 128 127 127 127 127 126 126 127 128 131 135 140 143 146 148 148 148 147 146 145 145 145 149 154 162 171 179 185 190 196 203 213 226 240 254 264 273 279 284 286 287 288 289 289 290 290 291 292 293 294 294 294 294 294 294 295 297 300 302 303
Height
1457 1457 1457 1457 1458 1459 1460 1462 1462 1464 1464 1465 1466 1466 1467 1467 1467 1467 1467 1468 1469 1470 1471 1471 1472 1473 1473 1473 1474 1475 1476 1476 1476 1477 1478 1479 1481 1482 1484 1485 1487 1489 1491 1492 1492 1493 1494 1496 1497 1499 1501 1502 1502 1503 1503 1504 1505 1506 1506 1507 1507 1507 1507 1508 1508 1508 1507 1507 1507
1455 1455 1455 1456 1457 1457 1459 1460 1461 1462 1462 1463 1463 1464 1464 1464 1465 1465 1465 1466 1467 1468 1469 1469 1470 1471 1471 1472 1472 1473 1474 1475 1475 1476 1477 1478 1479 1481 1482 1484 1486 1488 1490 1490 1490 1491 1492 1494 1495 1497 1498 1499 1500 1501 1502 1502 1503 1504 1505 1505 1506 1506 1506 1507 1507 1507 1507 1506 1506
1453 1453 1453 1454 1455 1456 1457 1458 1459 1459 1460 1461 1461 1462 1462 1462 1462 1463 1463 1464 1465 1466 1467 1467 1468 1468 1469 1469 1470 1471 1472 1473 1474 1475 1477 1478 1478 1480 1481 1483 1486 1487 1488 1488 1489 1490 1491 1492 1493 1495 1496 1497 1498 1499 1500 1500 1501 1502 1503 1504 1504 1505 1505 1505 1505 1506 1506 1506 1505
1451 1451 1451 1452 1452 1453 1454 1455 1456 1457 1458 1458 1459 1459 1459 1459 1460 1461 1462 1463 1463 1464 1464 1465 1466 1466 1467 1467 1468 1469 1470 1472 1473 1475 1476 1477 1478 1479 1481 1483 1485 1486 1486 1486 1487 1489 1490 1491 1492 1493 1494 1495 1496 1497 1498 1498 1499 1500 1501 1502 1503 1503 1503 1504 1504 1504 1504 1504 1504
1449 1449 1449 1449 1450 1451 1452 1453 1454 1455 1456 1456 1457 1457 1457 1457 1458 1459 1460 1461 1461 1462 1462 1462 1463 1463 1464 1465 1467 1468 1469 1471 1472 1474 1475 1475 1477 1479 1481 1482 1483 1484 1484 1484 1486 1487 1489 1489 1490 1491 1492 1492 1494 1495 1496 1496 1497 1497 1498 1500 1501 1502 1502 1502 1503 1503 1503 1503 1502
1447 1447 1447 1447 1448 1448 1449 1450 1452 1452 1453 1454 1454 1454 1454 1455 1456 1457 1457 1458 1458 1459 1459 1460 1460 1461 1462 1463 1465 1467 1469 1472 1472 1472 1473 1474 1476 1477 1479 1480 1481 1482 1482 1482 1484 1486 1487 1487 1488 1488 1489 1490 1492 1493 1493 1494 1494 1495 1496 1498 1500 1501 1501 1501 1502 1502 1502 1502 1501
1446 1446 1446 1446 1446 1447 1447 1448 1449 1450 1451 1451 1452 1452 1452 1453 1453 1454 1455 1456 1456 1457 1457 1457 1457 1459 1460 1462 1464 1466 1468 1470 1471 1471 1472 1472 1474 1475 1477 1478 1479 1479 1480 1482 1483 1484 1484 1485 1485 1486 1487 1488 1490 1491 1491 1492 1493 1494 1495 1497 1498 1499 1500 1500 1500 1501 1501 1500 1500
1444 1444 1444 1444 1444 1444 1445 1446 1447 1448 1448 1449 1449 1449 1450 1451 1452 1452 1453 1453 1454 1454 1455 1455 1456 1458 1461 1463 1464 1465 1466 1467 1468 1469 1470 1471 1472 1474 1475 1476 1477 1478 1479 1480 1481 1482 1482 1482 1484 1485 1486 1487 1488 1489 1490 1491 1492 1492 1494 1496 1497 1498 1498 1499 1499 1499 1499 1499 1498
1442 1442 1442 1442 1442 1442 1443 1444 1445 1445 1446 1446 1447 1447 1448 1449 1450 1450 1451 1451 1452 1452 1453 1454 1455 1458 1460 1462 1462 1463 1464 1465 1466 1467 1468 1469 1470 1472 1473 1474 1475 1477 1478 1479 1479 1480 1480 1482 1483 1484 1485 1486 1487 1487 1489 1490 1491 1492 1493 1494 1495 1496 1497 1497 1497 1498 1498 1497 1497
1440 1440 1440 1440 1440 1441 1441 1442 1442 1443 1444 1444 1445 1446 1447 1447 1447 1448 1448 1449 1450 1451 1452 1453 1455 1457 1458 1459 1460 1461 1462 1463 1464 1465 1466 1467 1468 1469 1471 1473 1474 1475 1476 1477 1477 1478 1480 1481 1482 1483 1483 1484 1485 1486 1487 1489 1490 1491 1492 1493 1494 1495 1495 1496 1496 1497 1497 1496 1496
1438 1438 1438 1438 1438 1439 1439 1440 1441 1441 1442 1442 1443 1444 1445 1445 1446 1446 1447 1447 1449 1450 1452 1454 1455 1456 1457 1457 1458 1459 1460 1461 1462 1463 1464 1465 1466 1468 1470 1471 1472 1473 1474 1475 1476 1477 1479 1480 1481 1482 1482 1483 1484 1485 1486 1487 1488 1490 1491 1492 1492 1493 1494 1495 1495 1495 1495 1495 1494
1436 1436 1437 1437 1437 1437 1437 1438 1439 1439 1440 1441 1442 1442 1443 1443 1444 1444 1445 1446 1448 1450 1452 1454 1455 1455 1455 1455 1456 1457 1458 1459 1460 1461 1462 1463 1465 1467 1468 1470 1471 1472 1472 1474 1475 1476 1477 1479 1479 1480 1481 1482 1483 1484 1485 1486 1487 1488 1489 1490 1491 1492 1493 1494 1494 1494 1494 1494 1493
1434 1435 1435 1435 1435 1436 1436 1437 1437 1437 1438 1439 1440 1440 1441 1442 1442 1443 1444 1446 1447 1449 1451 1452 1453 1454 1454 1454 1454 1455 1456 1457 1458 1459 1461 1462 1463 1465 1467 1468 1469 1470 1471 1472 1474 1476 1477 1478 1479 1480 1480 1481 1482 1483 1484 1486 1487 1487 1488 1489 1490 1491 1492 1492 1493 1493 1492 1492 1492
1433 1433 1433 1434 1434 1434 1435 1435 1436 1436 1437 1437 1438 1439 1439 1440 1441 1442 1444 1446 1447 1448 1449 1451 1452 1452 1452 1452 1453 1453 1454 1455 1456 1457 1458 1460 1462 1463 1465 1467 1468 1469 1470 1472 1473 1475 1476 1477 1478 1478 1479 1479 1480 1482 1483 1485 1486 1486 1487 1487 1488 1489 1490 1491 1491 1491 1491 1491 1490
1431 1431 1432 1432 1432 1433 1433 1434 1434 1435 1436 1436 1437 1438 1438 1439 1440 1442 1444 1446 1447 1447 1448 1449 1450 1451 1451 1451 1451 1452 1452 1453 1454 1455 1457 1458 1460 1462 1464 1465 1467 1468 1469 1471 1473 1474 1475 1476 1476 1477 1477 1478 1479 1481 1482 1483 1485 1485 1485 1486 1487 1487 1488 1489 1490 1490 1489 1489 1489
1429 1430 1430 1431 1431 1432 1432 1432 1433 1434 1434 1435 1436 1437 1437 1438 1440 1442 1443 1445 1445 1445 1446 1447 1448 1448 1449 1449 1450 1450 1451 1451 1452 1453 1455 1456 1458 1460 1462 1464 1465 1467 1468 1470 1471 1472 1473 1473 1474 1475 1476 1477 1478 1479 1481 1482 1483 1484 1484 1484 1485 1486 1487 1487 1488 1488 1488 1487 1488
1428 1428 1429 1429 1430 1430 1431 1431 1432 1432 1433 1434 1434 1435 1436 1437 1439 1441 1442 1443 1443 1443 1444 1445 1445 1446 1447 1448 1448 1449 1449 1450 1451 1452 1453 1455 1457 1459 1461 1463 1464 1466 1467 1469 1470 1470 1471 1472 1473 1474 1476 1477 1478 1479 1480 1481 1482 1482 1483 1483 1484 1485 1485 1486 1486 1486 1486 1486 1486
1427 1427 1427 1428 1428 1429 1429 1430 1431 1431 1432 1432 1433 1434 1435 1436 1438 1439 1441 1441 1442 1442 1442 1443 1443 1444 1445 1446 1447 1447 1448 1449 1450 1451 1452 1454 1456 1458 1461 1462 1464 1465 1466 1467 1468 1469 1470 1471 1473 1474 1476 1477 1479 1480 1480 1480 1481 1482 1482 1482 1483 1483 1484 1485 1485 1484 1484 1484 1485
1425 1426 1426 1427 1427 1428 1428 1429 1429 1429 1430 1431 1432 1432 1434 1435 1437 1438 1439 1439 1440 1440 1440 1441 1442 1443 1444 1445 1446 1446 1447 1448 1449 1451 1452 1454 1456 1458 1460 1462 1463 1464 1465 1466 1467 1469 1470 1472 1473 1474 1476 1478 1479 1480 1480 1480 1481 1481 1481 1482 1482 1483 1483 1483 1483 1482 1482 1483 1484
1424 1425 1425 1426 1426 1427 1427 1427 1428 1428 1428 1429 1430 1432 1433 1434 1435 1436 1437 1437 1438 1438 1439 1440 1441 1442 1444 1444 1445 1445 1446 1447 1449 1450 1452 1454 1456 1458 1459 1460 1462 1463 1464 1465 1467 1468 1470 1472 1473 1475 1476 1478 1479 1479 1480 1480 1480 1480 1481 1481 1482 1482 1482 1482 1481 1481 1481 1482 1484
1423 1424 1424 1425 1425 1426 1426 1427 1427 1427 1428 1428 1429 1430 1432 1432 1433 1434 1435 1435 1436 1437 1438 1439 1440 1441 1442 1442 1443 1444 1445 1447 1448 1450 1452 1453 1455 1457 1458 1459 1460 1462 1463 1465 1466 1468 1470 1472 1473 1475 1476 1477 1478 1479 1479 1479 1479 1480 1480 1481 1481 1481 1480 1480 1480 1480 1482 1482 1483
1422 1423 1423 1424 1424 1424 1425 1425 1426 1426 1427 1427 1428 1429 1430 1431 1432 1432 1433 1434 1434 1435 1437 1438 1439 1440 1441 1441 1442 1443 1444 1446 1447 1449 1451 1453 1454 1456 1457 1458 1459 1461 1462 1465 1467 1469 1471 1472 1473 1474 1476 1477 1477 1478 1478 1478 1479 1479 1479 1479 1479 1479 1479 1479 1480 1481 1482 1482 1482
1421 1421 1422 1422 1422 1423 1424 1424 1425 1425 1426 1427 1427 1428 1428 1429 1430 1431 1432 1432 1433 1434 1436 1437 1438 1438 1439 1441 1442 1443 1444 1445 1447 1448 1450 1452 1453 1454 1456 1457 1459 1461 1463 1465 1467 1469 1470 1472 1473 1474 1475 1476 1476 1477 1477 1477 1477 1478 1478 1477 1477 1477 1478 1479 1480 1481 1481 1481 1481
1419 1420 1420 1421 1421 1422 1422 1423 1424 1424 1425 1425 1426 1427 1427 1428 1429 1430 1431 1432 1432 1433 1434 1436 1436 1437 1438 1440 1441 1442 1443 1445 1447 1448 1450 1451 1452 1454 1455 1457 1460 1462 1464 1466 1467 1469 1470 1472 1472 1473 1474 1475 1475 1476 1476 1476 1477 1476 1476 1476 1476 1477 1478 1479 1480 1480 1480 1480 1479
1418 1419 1419 1420 1420 1421 1421 1422 1422 1423 1424 1424 1425 1426 1426 1427 1428 1429 1430 1431 1432 1432 1433 1434 1435 1436 1437 1439 1440 1442 1444 1445 1447 1448 1449 1451 1452 1454 1456 1458 1460 1462 1464 1466 1467 1469 1470 1471 1472 1473 1474 1474 1475 1475 1475 1475 1475 1475 1475 1475 1476 1477 1478 1479 1479 1479 1479 1478 1478
1418 1418 1419 1419 1419 1420 1420 1421 1422 1422 1422 1423 1424 1424 1425 1426 1427 1427 1428 1429 1431 1432 1432 1433 1434 1435 1437 1438 1441 1442 1444 1446 1447 1448 1449 1450 1452 1454 1457 1459 1461 1462 1464 1466 1467 1469 1470 1472 1472 1473 1473 1474 1474 1474 1474 1474 1474 1474 1474 1475 1476 1477 1478 1478 1478 1478 1477 1477 1476
1418 1418 1419 1419 1419 1419 1420 1420 1420 1421 1422 1422 1422 1423 1424 1424 1425 1426 1427 1428 1430 1431 1432 1433 1434 1436 1437 1439 1442 1443 1444 1446 1447 1448 1449 1451 1453 1455 1457 1459 1461 1463 1465 1467 1468 1469 1471 1472 1472 1472 1473 1473 1473 1473 1473 1473 1473 1474 1474 1476 1477 1477 1477 1477 1477 1476 1476 1475 1475
1418 1418 1419 1419 1419 1419 1419 1419 1420 1420 1421 1421 1421 1422 1422 1423 1424 1426 1427 1428 1429 1431 1432 1433 1435 1437 1439 1441 1442 1443 1444 1446 1447 1449 1451 1453 1455 1457 1458 1460 1462 1464 1466 1467 1468 1469 1470 1471 1472 1472 1472 1472 1472 1472 1472 1472 1473 1474 1475 1475 1476 1476 1476 1475 1475 1475 1474 1474 1473
1418 1418 1419 1419 1419 1419 1419 1419 1420 1420 1420 1420 1421 1421 1422 1423 1424 1426 1427 1428 1430 1431 1432 1434 1436 1438 1439 1441 1442 1443 1445 1447 1448 1450 1452 1454 1456 1457 1459 1461 1463 1464 1466 1467 1468 1469 1470 1470 1471 1471 1471 1471 1471 1471 1472 1472 1473 1474 1474 1474 1474 1474 1474 1473 1474 1473 1473 1473 1472
1418 1418 1419 1420 1420 1420 1420 1420 1420 1420 1420 1420 1421 1422 1423 1424 1425 1426 1427 1429 1431 1432 1434 1436 1437 1438 1440 1441 1443 1444 1446 1448 1450 1452 1453 1455 1457 1458 1460 1462 1463 1465 1466 1467 1468 1468 1469 1470 1470 1470 1470 1470 1471 1471 1472 1472 1473 1473 1473 1473 1472 1472 1472 1472 1472 1472 1472 1471 1470
1418 1419 1420 1420 1420 1420 1421 1421 1421 1421 1421 1421 1422 1423 1424 1425 1426 1428 1429 1431 1433 1434 1436 1437 1438 1439 1441 1442 1444 1446 1447 1449 1451 1452 1454 1456 1457 1459 1461 1462 1464 1465 1466 1467 1467 1468 1468 1469 1469 1469 1470 1470 1471 1471 1472 1472 1472 1472 1471 1471 1471 1471 1472 1472 1471 1471 1470 1469 1469
1418 1419 1420 1421 1421 1422 1422 1422 1422 1422 1422 1423 1424 1425 1426 1427 1428 1430 1432 1433 1434 1435 1437 1438 1439 1440 1442 1444 1445 1447 1449 1450 1452 1454 1455 1457 1458 1460 1462 1463 1464 1465 1466 1466 1467 1467 1468 1468 1468 1469 1469 1470 1470 1471 1471 1471 1470 1470 1470 1470 1471 1471 1470 1470 1470 1469 1468 1468 1467
1419 1420 1421 1422 1422 1423 1423 1423 1424 1424 1425 1425 1426 1427 1428 1429 1430 1432 1433 1434 1435 1437 1437 1439 1440 1442 1443 1445 1447 1449 1450 1452 1453 1455 1457 1458 1460 1461 1462 1463 1464 1465 1465 1466 1466 1467 1467 1467 1468 1469 1469 1470 1470 1470 1469 1469 1469 1469 1469 1470 1470 1469 1469 1468 1468 1467 1467 1466 1466
1420 1421 1422 1423 1424 1424 1425 1425 1426 1427 1427 1427 1428 1429 1430 1431 1432 1433 1434 1435 1437 1438 1439 1440 1442 1444 1445 1447 1449 1450 1452 1453 1455 1456 1458 1459 1460 1462 1462 1463 1464 1464 1465 1465 1466 1466 1467 1467 1468 1469 1469 1469 1468 1468 1468 1468 1468 1469 1469 1468 1468 1468 1467 1467 1467 1466 1465 1465 1464
1422 1423 1424 1425 1426 1427 1427 1428 1428 1429 1429 1430 1430 1431 1432 1432 1433 1434 1435 1437 1438 1439 1441 1442 1444 1446 1447 1449 1451 1452 1454 1455 1456 1458 1459 1460 1461 1462 1462 1463 1463 1464 1464 1465 1466 1466 1467 1467 1468 1468 1468 1468 1468 1468 1468 1468 1468 1468 1467 1467 1467 1467 1466 1465 1465 1464 1464 1463 1462
1424 1425 1426 1427 1427 1428 1429 1429 1430 1431 1431 1432 1432 1432 1433 1434 1435 1436 1437 1438 1439 1441 1442 1444 1446 1447 1449 1451 1452 1454 1455 1456 1457 1458 1459 1460 1461 1462 1462 1462 1463 1464 1464 1465 1466 1466 1467 1467 1467 1467 1467 1467 1467 1467 1467 1467 1467 1467 1466 1466 1466 1465 1465 1464 1463 1463 1462 1462 1461
1425 1426 1426 1427 1428 1429 1429 1430 1431 1432 1432 1433 1433 1434 1435 1436 1437 1437 1439 1440 1441 1443 1444 1446 1448 1449 1451 1452 1453 1455 1456 1457 1458 1459 1460 1460 1461 1462 1462 1463 1463 1464 1465 1465 1466 1466 1466 1466 1467 1467 1467 1467 1467 1467 1466 1466 1466 1466 1465 1465 1464 1464 1463 1463 1462 1462 1461 1460 1459
1426 1427 1427 1428 1428 1429 1430 1431 1432 1433 1433 1434 1435 1436 1436 1437 1438 1439 1441 1442 1443 1445 1446 1447 1449 1451 1452 1453 1454 1456 1457 1457 1458 1459 1460 1460 1461 1462 1462 1463 1464 1464 1465 1465 1466 1466 1466 1466 1466 1466 1466 1466 1466 1466 1465 1465 1465 1464 1464 1464 1463 1463 1462 1462 1461 1460 1460 1459 1458
1427 1427 1428 1429 1430 1431 1432 1433 1433 1434 1435 1436 1437 1437 1438 1439 1440 1441 1442 1444 1445 1447 1447 1449 1450 1452 1453 1454 1455 1456 1457 1457 1458 1459 1460 1461 1461 1462 1463 1463 1464 1464 1465 1465 1465 1465 1465 1465 1465 1466 1465 1465 1465 1465 1464 1464 1464 1463 1463 1463 1462 1462 1461 1461 1460 1459 1458 1458 1457
1428 1429 1430 1431 1432 1432 1433 1434 1435 1436 1437 1437 1438 1439 1440 1441 1442 1443 1444 1446 1447 1448 1449 1450 1452 1452 1454 1455 1456 1456 1457 1458 1458 1459 1460 1461 1462 1462 1463 1463 1464 1464 1464 1464 1465 1465 1464 1464 1465 1465 1465 1464 1464 1464 1463 1463 1463 1462 1462 1462 1461 1461 1460 1459 1459 1458 1457 1457 1456
1431 1432 1432 1433 1434 1435 1435 1436 1437 1438 1439 1440 1440 1441 1442 1443 1444 1445 1446 1447 1448 1450 1451 1452 1453 1454 1454 1455 1456 1457 1457 1458 1459 1460 1461 1462 1462 1462 1463 1463 1463 1463 1464 1464 1464 1464 1464 1464 1464 1464 1464 1463 1463 1463 1463 1462 1462 1462 1461 1461 1460 1460 1459 1458 1458 1457 1457 1456 1455